Weather reports worldwide

Advertisment
Pertusato, France (7770): temperature & dewpoint: 09.12.2019 18:00:00 - 15.12.2019 18:00:00 (CET)Pertusato, France (7770): wind speed & gusts: 09.12.2019 18:00:00 - 15.12.2019 18:00:00 (CET)Pertusato, France (7770): wind direction: 09.12.2019 18:00:00 - 15.12.2019 18:00:00 (CET)Pertusato, France (7770): reduced air pressure: 09.12.2019 18:00:00 - 15.12.2019 18:00:00 (CET)Pertusato, France (7770): visibility: 09.12.2019 18:00:00 - 15.12.2019 18:00:00 (CET)Pertusato, France (7770): precipitation: 09.12.2019 18:00:00 - 15.12.2019 18:00:00 (CET)
Date & Time tt [°C] td [°C] ff [km/h] ff [kn] fx [km/h] fx [kn] dd ppp [hPa] vv [km] rr [mm]
15.12.2019 18:00:00 14,5 11,8 14 8 27 14 W 1017,0 - 0,0
15.12.2019 17:00:00 15,1 12,2 18 10 37 20 W 1016,8 - 0,0
15.12.2019 16:00:00 15,2 12,0 15 8 42 23 W 1016,3 12 0,0
15.12.2019 15:00:00 15,3 12,4 18 10 50 27 WSW 1016,1 - 0,0
15.12.2019 14:00:00 15,7 11,7 21 11 60 33 W 1015,6 - 0,0
15.12.2019 13:00:00 15,5 11,3 25 13 52 28 WSW 1015,8 12 0,0
15.12.2019 12:00:00 15,0 11,9 25 14 52 28 WSW 1016,5 - 0,0
15.12.2019 11:00:00 15,0 11,8 19 10 48 26 WSW 1016,6 - 0,0
15.12.2019 10:00:00 14,6 12,1 18 10 49 26 WSW 1016,4 10 0,0
15.12.2019 09:00:00 14,5 12,5 22 12 59 32 W 1015,5 - 0,0
15.12.2019 08:00:00 14,4 12,8 22 12 58 31 W 1014,6 - 0,0
15.12.2019 07:00:00 14,3 13,2 20 11 57 31 W 1014,3 10 0,0
15.12.2019 06:00:00 14,3 13,3 23 12 60 32 W 1014,0 - 0,0
15.12.2019 05:00:00 14,3 13,3 25 13 62 34 W 1013,5 - 0,0
15.12.2019 04:00:00 14,5 13,5 22 12 63 34 W 1014,1 10 0,0
15.12.2019 03:00:00 14,5 13,5 19 11 71 39 W 1014,3 - 0,0
15.12.2019 02:00:00 14,6 13,5 26 14 81 44 W 1013,5 - 0,0
15.12.2019 01:00:00 14,8 13,3 34 18 64 34 W 1013,3 - 0,0
15.12.2019 00:00:00 15,0 13,5 24 13 65 35 W 1013,6 - 0,0
14.12.2019 23:00:00 14,9 13,4 22 12 68 37 W 1013,4 - 0,0
14.12.2019 22:00:00 14,9 13,3 24 13 72 39 W 1012,5 - 0,0
14.12.2019 21:00:00 15,1 13,0 25 13 80 43 W 1011,4 - 0,0
14.12.2019 20:00:00 15,3 12,8 21 11 72 39 W 1011,0 - 0,0
14.12.2019 19:00:00 15,4 12,2 27 15 76 41 W 1010,2 10 0,0
14.12.2019 18:00:00 15,8 10,1 37 20 62 33 W 1009,6 - 0,0
14.12.2019 17:00:00 16,2 9,8 36 20 68 37 WNW 1009,3 - 0,0
14.12.2019 16:00:00 16,1 11,5 41 22 78 42 W 1009,0 10 0,0
14.12.2019 15:00:00 16,4 11,3 51 28 76 41 W 1008,3 - 0,0
14.12.2019 14:00:00 16,3 12,1 53 29 84 46 W 1007,8 - 0,0
14.12.2019 13:00:00 16,5 11,8 49 26 75 41 W 1007,3 10 0,0
14.12.2019 12:00:00 16,4 11,5 48 26 85 46 W 1007,1 - 0,0
14.12.2019 11:00:00 15,5 12,1 53 28 92 50 W 1007,1 - 0,0
14.12.2019 10:00:00 15,1 12,0 57 31 81 44 W 1006,4 10 0,0
14.12.2019 09:00:00 14,8 11,8 48 26 73 39 W 1005,3 - 0,0
14.12.2019 08:00:00 14,4 12,3 41 22 76 41 W 1004,4 10 0,0
14.12.2019 07:00:00 14,0 11,9 50 27 90 49 W 1004,0 10 0,2
14.12.2019 06:00:00 13,6 10,8 48 26 76 41 W 1002,5 - 0,0
14.12.2019 05:00:00 13,6 9,2 55 30 82 44 W 1002,5 - 0,0
14.12.2019 04:00:00 13,6 8,4 46 25 87 47 W 1002,2 6 0,0
14.12.2019 03:00:00 13,4 7,4 57 31 99 54 WNW 1001,7 - 0,0
14.12.2019 02:00:00 13,3 7,1 60 32 112 61 WNW 999,0 - 0,0
14.12.2019 01:00:00 13,2 5,4 73 40 120 65 WNW 996,6 - 0,0
14.12.2019 00:00:00 13,6 5,5 74 40 117 63 WNW 995,9 - 0,0
13.12.2019 23:00:00 13,4 2,9 74 40 121 65 WNW 995,4 - 0,0
13.12.2019 22:00:00 13,2 3,8 74 40 126 68 WNW 993,0 - 0,0
13.12.2019 21:00:00 13,6 2,8 73 39 117 63 WNW 993,0 - 0,0
13.12.2019 20:00:00 13,8 5,2 68 37 127 69 WNW 992,5 - 0,0
13.12.2019 19:00:00 13,8 7,3 79 43 140 76 WNW 990,7 10 0,0
13.12.2019 18:00:00 13,9 7,4 68 37 121 65 WNW 991,7 - 0,0
13.12.2019 17:00:00 14,5 8,4 79 43 134 72 W 988,8 - 0,0
13.12.2019 16:00:00 14,9 9,3 96 52 130 70 W 987,2 6 0,0
13.12.2019 15:00:00 15,2 11,6 81 44 130 70 W 987,6 - 0,0
13.12.2019 14:00:00 15,8 11,6 83 45 132 72 W 988,8 - 0,0
13.12.2019 13:00:00 15,5 12,6 51 28 133 72 W 987,8 6 0,0
13.12.2019 12:00:00 15,4 12,7 48 26 134 72 WSW 989,1 - 0,0
13.12.2019 11:00:00 14,4 12,8 46 25 118 64 W 991,1 - 0,2
13.12.2019 10:00:00 13,7 12,4 37 20 125 67 W 991,8 6 2,6
13.12.2019 09:00:00 14,3 12,2 44 24 108 58 W 992,9 - 0,8
13.12.2019 08:00:00 13,3 11,7 71 38 106 57 W 993,5 - 0,8
13.12.2019 07:00:00 13,4 11,3 61 33 102 55 W 994,7 8 2,2
13.12.2019 06:00:00 11,9 10,3 60 32 106 57 W 994,9 - 5,6
13.12.2019 05:00:00 12,7 11,3 38 21 119 64 W 993,8 - 0,6
13.12.2019 04:00:00 12,5 10,6 37 20 103 56 W 996,3 8 2,4
13.12.2019 03:00:00 13,3 9,7 26 14 91 49 WNW 998,0 - 0,2
13.12.2019 02:00:00 12,7 10,2 16 8 63 34 WNW 999,6 - 0,0
13.12.2019 01:00:00 12,7 8,4 22 12 57 31 WNW 1000,8 - 0,0
13.12.2019 00:00:00 11,5 9,1 30 16 56 30 W 1003,0 - 0,4
12.12.2019 23:00:00 10,4 8,0 21 11 36 19 WNW 1004,4 - 0,0
12.12.2019 22:00:00 9,7 7,3 30 16 84 45 WNW 1005,1 - 1,6
12.12.2019 21:00:00 12,2 5,8 45 25 84 45 W 1004,4 - 0,0
12.12.2019 20:00:00 11,6 5,0 45 24 69 37 WNW 1004,4 - 0,0
12.12.2019 19:00:00 11,4 3,9 41 22 74 40 WNW 1004,8 12 0,0
12.12.2019 18:00:00 11,3 3,6 44 24 77 42 WNW 1005,0 - 0,0
12.12.2019 17:00:00 11,1 3,6 51 27 93 50 WNW 1004,7 - 0,0
12.12.2019 16:00:00 11,4 1,9 66 35 102 55 WNW 1004,0 12 0,0
12.12.2019 15:00:00 11,9 4,1 64 35 111 60 WNW 1003,0 - 0,0
12.12.2019 14:00:00 11,9 4,6 65 35 109 59 WNW 1003,6 - 0,0
12.12.2019 13:00:00 12,3 3,0 68 37 108 58 WNW 1004,4 12 0,0
12.12.2019 12:00:00 12,1 2,8 68 37 109 59 WNW 1005,5 - 0,0
12.12.2019 11:00:00 12,6 4,0 66 35 112 61 WNW 1005,8 - 0,0
12.12.2019 10:00:00 12,4 2,5 68 37 115 62 W 1005,9 10 0,0
12.12.2019 09:00:00 11,9 4,1 68 37 110 59 WNW 1005,6 - 0,0
12.12.2019 08:00:00 11,8 5,2 68 37 114 62 WNW 1005,6 - 0,0
12.12.2019 07:00:00 12,0 5,6 70 38 106 57 W 1004,4 10 0,0
12.12.2019 06:00:00 12,1 5,9 57 31 99 54 WNW 1005,3 - 0,0
12.12.2019 05:00:00 12,0 5,6 58 32 100 54 WNW 1005,3 - 0,0
12.12.2019 04:00:00 11,3 6,4 60 32 99 53 WNW 1006,0 8 0,0
12.12.2019 03:00:00 10,9 7,0 47 25 72 39 WNW 1006,8 - 0,0
12.12.2019 02:00:00 9,7 8,5 32 17 50 27 WNW 1007,7 - 0,4
12.12.2019 01:00:00 9,6 7,2 32 18 73 39 WNW 1007,9 8 0,0
12.12.2019 00:00:00 11,3 9,6 40 22 75 40 W 1007,3 - 0,8
11.12.2019 23:00:00 12,3 7,0 21 11 40 22 WNW 1009,1 - 0,0
11.12.2019 22:00:00 12,3 6,3 27 15 42 23 W 1009,8 - 0,0
11.12.2019 21:00:00 12,0 5,6 29 15 43 23 WNW 1010,5 - 0,0
11.12.2019 20:00:00 12,2 5,1 28 15 42 23 WNW 1010,9 - 0,0
11.12.2019 19:00:00 11,8 5,0 30 16 48 26 WNW 1011,5 15 0,0
11.12.2019 18:00:00 11,7 5,3 32 17 49 27 WNW 1011,8 - 0,0
11.12.2019 17:00:00 11,9 4,8 34 18 51 28 WNW 1011,9 - 0,0
11.12.2019 16:00:00 12,3 4,3 38 20 61 33 WNW 1012,1 25 0,0
11.12.2019 15:00:00 13,0 3,4 31 17 46 25 W 1012,7 - 0,0
11.12.2019 14:00:00 12,9 2,1 26 14 47 25 W 1013,3 - 0,0
11.12.2019 13:00:00 13,2 2,7 18 10 39 21 WNW 1014,2 25 0,0
11.12.2019 12:00:00 13,4 3,2 11 6 25 13 W 1015,6 - 0,0
11.12.2019 11:00:00 13,6 1,9 10 5 19 10 W 1016,7 - 0,0
11.12.2019 10:00:00 12,8 2,0 7 4 18 10 NNE 1017,1 15 0,0
11.12.2019 09:00:00 9,9 0,8 14 7 23 12 NE 1017,3 - 0,0
11.12.2019 08:00:00 8,2 -0,1 18 10 26 14 NE 1017,3 - 0,0
11.12.2019 07:00:00 8,6 0,3 17 9 32 17 NE 1017,4 15 0,0
11.12.2019 06:00:00 9,9 0,5 21 12 35 19 NE 1017,3 - 0,0
11.12.2019 05:00:00 10,1 0,1 21 11 37 20 NE 1017,3 - 0,0
11.12.2019 04:00:00 10,5 0,2 19 11 36 20 NE 1017,7 15 0,0
11.12.2019 03:00:00 10,3 1,1 22 12 37 20 NE 1018,0 - 0,0
11.12.2019 02:00:00 10,3 0,9 19 10 27 15 NE 1018,1 - 0,0
11.12.2019 01:00:00 10,6 1,4 18 10 35 19 NNE 1018,7 12 0,0
11.12.2019 00:00:00 10,7 1,8 20 11 34 18 NNE 1018,8 - 0,0
10.12.2019 23:00:00 11,3 1,5 19 10 35 19 NNE 1018,8 - 0,0
10.12.2019 22:00:00 11,6 1,5 22 12 48 26 NNE 1018,2 - 0,0
10.12.2019 21:00:00 11,4 2,1 20 11 32 17 NNE 1018,1 - 0,0
10.12.2019 20:00:00 11,8 2,5 18 10 47 26 N 1017,7 - 0,0
10.12.2019 19:00:00 12,6 2,7 31 17 55 30 NE 1016,6 12 0,0
10.12.2019 18:00:00 12,6 3,3 24 13 44 24 NNE 1016,0 - 0,0
10.12.2019 17:00:00 12,6 1,0 19 10 50 27 N 1015,1 - 0,0
10.12.2019 16:00:00 14,6 0,1 31 17 63 34 NNE 1014,5 - 0,0
10.12.2019 15:00:00 15,6 0,6 25 14 63 34 NNE 1013,9 - 0,0
10.12.2019 14:00:00 16,4 1,3 22 12 63 34 NNE 1013,7 - 0,0
10.12.2019 13:00:00 16,6 0,2 29 15 68 37 NE 1013,7 20 0,0
10.12.2019 12:00:00 16,6 3,3 27 15 49 27 NE 1013,5 - 0,0
10.12.2019 11:00:00 16,1 2,1 14 8 42 23 NE 1013,7 - 0,0
10.12.2019 10:00:00 14,5 6,1 4 2 18 10 SW 1013,1 12 0,0
10.12.2019 09:00:00 11,6 5,0 5 3 15 8 NW 1012,4 - 0,0
10.12.2019 08:00:00 9,9 1,3 11 6 25 13 N 1011,6 - 0,0
10.12.2019 07:00:00 10,6 5,1 5 3 11 6 WNW 1010,5 - 0,0
10.12.2019 06:00:00 9,3 1,9 10 5 16 9 N 1009,8 - 0,0
10.12.2019 05:00:00 9,8 4,2 11 6 23 12 N 1009,1 - 0,0
10.12.2019 04:00:00 11,4 6,1 16 9 38 20 NW 1008,9 10 0,0
10.12.2019 03:00:00 12,1 6,4 27 15 51 27 WNW 1008,3 - 0,0
10.12.2019 02:00:00 12,2 6,5 31 17 61 33 WNW 1008,1 - 0,0
10.12.2019 01:00:00 12,6 6,4 41 22 69 38 WNW 1007,8 10 0,0
10.12.2019 00:00:00 12,8 5,5 41 22 83 45 WNW 1008,2 - 0,0
09.12.2019 23:00:00 13,2 5,6 49 26 80 43 WNW 1007,4 - 0,0
09.12.2019 22:00:00 13,2 5,6 46 25 89 48 WNW 1009,3 - 0,0
09.12.2019 21:00:00 13,7 6,3 50 27 93 50 WNW 1009,7 - 0,0
09.12.2019 20:00:00 13,2 7,8 57 31 96 52 WNW 1009,1 - 0,0
09.12.2019 19:00:00 13,7 8,3 53 28 97 53 W 1008,9 10 0,0
09.12.2019 18:00:00 13,5 7,7 52 28 101 55 WNW 1009,4 - 0,0

tt = temperature
td = dewpoint
ff = wind speed
fx = gusts
dd = wind direction
ppp = reduced air pressure
vv = visibility
rr = precipitation

Next stations